Tracking 29892 objects as of 21-Nov-2024
HD Live streaming from Space Station
objects crossing your sky now

STARLINK-11311

Track STARLINK-11311 now!
10-day predictions
STARLINK-11311 is classified as:


NORAD ID: 61253
Int'l Code: 2024-175L
Perigee: 365.8 km
Apogee: 367.9 km
Inclination: 53.2 °
Period: 91.7 minutes
Semi major axis: 6737 km
RCS: Unknown
Launch date: September 25, 2024
Source: United States (US)
Launch site: AIR FORCE WESTERN TEST RANGE (AFWTR)
Your satellite tracking list
Your tracking list is empty




NASA's NSSDC Master Catalog

Two Line Element Set (TLE):
1 61253U 24175L   24325.16089288 -.00000369  00000-0  18223-5 0  9994
2 61253  53.1564 235.7181 0001612 124.5244 235.5926 15.69711389 10049
Source of the keplerian elements: AFSPC